星链-31651 (STARLINK-31651 )

导读

STARLINK-31651是美国于2024年5月24日发射的星链卫星,星链计划是SpaceX打造的低轨卫星互联网星座,该卫星旨在补充完善全球卫星互联网组网,为全球偏远地区等提供高速互联网接入服务,是星链大规模组网进程中的一颗卫星,进一步推进星链星座的全球覆盖布局。

Basic Information
目录编号:
59860
目录名称:
STARLINK-31651
国际标识:
2024-098C
轨道中心:
EARTH
卫星名称:
星链-31651
卫星全名:
星链-31651 (STARLINK-31651 )
卫星状态:
在轨 (已飞行840 天)
发射日期:
2024-05-24 UTC
国别 :
美国 (US)
星等 :
--
This satellite is enrolled in the Space Conjunction Data Service (SCDS) and the current flight risk assessment level is: High Risk
Orbit Information
数据来源 国际轨道数据
星历时间: 2026-09-11T13:44:18+0800
10小时前
查看轨道信息
半长轴: 6861.195km
偏心率: 0.0001902
轨道倾角: 43.001°
近地点辐角 290.287°
升交点赤经 310.104°
平近点角 69.778°
近地点: 481.753km
远地点: 484.363km
周期: 94.267分钟
每日圈数: 15.275771
Detailed Information
固有亮度:
5
最大亮度:
1.5
卫星平台:
Starlink v2.0 mini
覆盖范围:
全球
运营商:
太空探索技术公司
运营商所在国:
美国
制造商(研发单位):
太空探索技术公司
制造商所在国:
美国
使用方式:
暂无
Satellite Introduction
星链(Starlink)计划是由太空探索技术公司(SpaceX)提出的一个巨型低轨卫星互联网星座项目,计划在2019年至2024年间在太空搭建由约1.2万颗卫星组成的“星链”网络,其中1584颗将部署在地球上空550千米处的近地轨道,并从2020年开始工作。该卫星仍在工作。
2D Orbit Map
3D Orbit Map
Orbit Altitude Analysis Chart
Orbit Inclination Analysis Chart
Orbit Comprehensive Analysis Chart
View Comprehensive Chart
Conjunction Data List
Event ID Objects TCA Miss Dist (km) Collision Risk Probability Collision Risk Index (CRI) Action
CDM_260913-204605-986006-745921
2026-09-13T
20:46:43+0000
0.129 km
中距离
8.851666E-4 高风险 0.94
CDM_260913-191205-986006-745921
2026-09-13T
19:12:34+0000
2.322 km
极远距离
1.200369E-6 低风险 0.37
CDM_260913-222005-986006-745921
2026-09-13T
22:20:53+0000
2.522 km
极远距离
1.036681E-6 低风险 0.35
Miss Distance Evolution Trend with All Objects
Collision Probability Evolution Trend with All Objects